Time,TemperatureF,DewpointF,PressureIn,WindDirection,WindDirectionDegrees,WindSpeedMPH,WindSpeedGustMPH,Humidity,HourlyPrecipIn,Conditions,Clouds,dailyrainin,SoftwareType,DateUTC
2013-02-26 00:14:00,28.4,23.0,30.12,South,188,0.0,0.0,80,0.00,,,0.00,weatherlink.com 1.10,2013-02-26 05:14:00,
2013-02-26 00:29:00,28.2,23.0,30.11,SW,235,0.0,0.0,81,0.00,,,0.00,weatherlink.com 1.10,2013-02-26 05:29:00,
2013-02-26 00:44:00,27.8,23.0,30.10,SSW,195,0.0,0.0,81,0.00,,,0.00,weatherlink.com 1.10,2013-02-26 05:44:00,
2013-02-26 00:59:00,27.7,23.0,30.09,SSW,195,0.0,0.0,81,0.00,,,0.00,weatherlink.com 1.10,2013-02-26 05:59:00,
2013-02-26 01:14:00,27.3,23.0,30.09,SSW,193,0.0,0.0,82,0.00,,,0.00,weatherlink.com 1.10,2013-02-26 06:14:00,
2013-02-26 01:29:00,27.0,23.0,30.08,South,191,0.0,0.0,83,0.00,,,0.00,weatherlink.com 1.10,2013-02-26 06:29:00,
2013-02-26 01:44:00,26.9,22.0,30.08,SE,139,0.0,0.0,83,0.00,,,0.00,weatherlink.com 1.10,2013-02-26 06:44:00,
2013-02-26 01:59:00,26.9,22.0,30.07,SSE,153,0.0,0.0,83,0.00,,,0.00,weatherlink.com 1.10,2013-02-26 06:59:00,
2013-02-26 02:15:00,26.8,22.0,30.07,South,174,0.0,0.0,83,0.00,,,0.00,weatherlink.com 1.10,2013-02-26 07:15:00,
2013-02-26 02:30:00,26.5,22.0,30.07,South,181,0.0,0.0,84,0.00,,,0.00,weatherlink.com 1.10,2013-02-26 07:30:00,
2013-02-26 02:45:00,26.3,22.0,30.07,South,181,0.0,0.0,85,0.00,,,0.00,weatherlink.com 1.10,2013-02-26 07:45:00,
2013-02-26 03:00:00,26.3,22.0,30.06,West,263,0.0,0.0,85,0.00,,,0.00,weatherlink.com 1.10,2013-02-26 08:00:00,
2013-02-26 03:15:00,26.5,23.0,30.05,West,264,0.0,0.0,85,0.00,,,0.00,weatherlink.com 1.10,2013-02-26 08:15:00,
2013-02-26 03:30:00,26.6,23.0,30.05,WSW,253,0.0,0.0,85,0.00,,,0.00,weatherlink.com 1.10,2013-02-26 08:30:00,
2013-02-26 03:45:00,26.8,23.0,30.04,South,188,0.0,0.0,84,0.00,,,0.00,weatherlink.com 1.10,2013-02-26 08:45:00,
2013-02-26 04:00:00,26.8,23.0,30.04,NW,307,0.0,0.0,84,0.00,,,0.00,weatherlink.com 1.10,2013-02-26 09:00:00,
2013-02-26 04:15:00,27.0,23.0,30.03,WSW,242,0.0,0.0,84,0.00,,,0.00,weatherlink.com 1.10,2013-02-26 09:15:00,
2013-02-26 04:30:00,27.2,23.0,30.02,SW,215,0.0,2.0,83,0.00,,,0.00,weatherlink.com 1.10,2013-02-26 09:30:00,
2013-02-26 04:45:00,27.2,23.0,30.01,SSE,160,1.0,1.0,83,0.00,,,0.00,weatherlink.com 1.10,2013-02-26 09:45:00,
2013-02-26 05:00:00,27.4,23.0,30.02,WNW,290,0.0,3.0,82,0.00,,,0.00,weatherlink.com 1.10,2013-02-26 10:00:00,
2013-02-26 05:15:00,27.6,23.0,30.00,North,5,2.0,4.0,81,0.00,,,0.00,weatherlink.com 1.10,2013-02-26 10:15:00,
2013-02-26 05:30:00,27.9,23.0,29.99,SW,225,1.0,3.0,81,0.00,,,0.00,weatherlink.com 1.10,2013-02-26 10:30:00,
2013-02-26 05:45:00,28.1,23.0,29.98,SW,222,1.0,4.0,80,0.00,,,0.00,weatherlink.com 1.10,2013-02-26 10:45:00,
2013-02-26 06:00:00,28.3,23.0,29.97,NNE,12,2.0,5.0,79,0.00,,,0.00,weatherlink.com 1.10,2013-02-26 11:00:00,
2013-02-26 06:15:00,28.4,23.0,29.97,North,359,0.0,3.0,79,0.00,,,0.00,weatherlink.com 1.10,2013-02-26 11:15:00,
2013-02-26 06:30:00,28.5,23.0,29.98,West,277,0.0,4.0,79,0.00,,,0.00,weatherlink.com 1.10,2013-02-26 11:30:00,
2013-02-26 06:45:00,28.4,23.0,29.94,SSE,149,1.0,3.0,79,0.00,,,0.00,weatherlink.com 1.10,2013-02-26 11:45:00,
2013-02-26 07:00:00,28.5,23.0,29.96,South,186,1.0,4.0,79,0.00,,,0.00,weatherlink.com 1.10,2013-02-26 12:00:00,
2013-02-26 07:15:00,28.6,23.0,29.95,SE,139,2.0,-999.0,79,-99.99,,,0.00,weatherlink.com 1.10,2013-02-26 12:15:00,
2013-02-26 07:30:00,28.7,23.0,29.94,SE,141,1.0,5.0,79,0.00,,,0.00,weatherlink.com 1.10,2013-02-26 12:30:00,
2013-02-26 07:45:00,28.8,23.0,29.93,SSE,164,0.0,4.0,78,0.00,,,0.00,weatherlink.com 1.10,2013-02-26 12:45:00,
2013-02-26 08:00:00,29.0,23.0,29.94,SE,141,1.0,6.0,78,0.00,,,0.00,weatherlink.com 1.10,2013-02-26 13:00:00,
2013-02-26 08:15:00,29.3,23.0,29.93,South,180,1.0,5.0,77,0.00,,,0.00,weatherlink.com 1.10,2013-02-26 13:15:00,
2013-02-26 08:30:00,29.7,23.0,29.92,SE,134,2.0,5.0,77,0.00,,,0.00,weatherlink.com 1.10,2013-02-26 13:30:00,
2013-02-26 08:45:00,30.2,24.0,29.92,SE,134,2.0,3.0,76,0.00,,,0.00,weatherlink.com 1.10,2013-02-26 13:45:00,
2013-02-26 09:00:00,30.6,24.0,29.93,SSW,204,2.0,6.0,75,0.00,,,0.00,weatherlink.com 1.10,2013-02-26 14:00:00,
2013-02-26 09:15:00,31.2,24.0,29.92,SSE,152,1.0,5.0,74,0.00,,,0.00,weatherlink.com 1.10,2013-02-26 14:15:00,
2013-02-26 09:31:00,31.6,24.0,29.90,NNE,32,4.0,7.0,73,0.00,,,0.00,weatherlink.com 1.10,2013-02-26 14:31:00,
2013-02-26 09:46:00,31.9,24.0,29.86,ESE,112,4.0,5.0,72,0.00,,,0.00,weatherlink.com 1.10,2013-02-26 14:46:00,
2013-02-26 10:01:00,32.3,24.0,29.85,SE,137,0.0,6.0,72,0.00,,,0.00,weatherlink.com 1.10,2013-02-26 15:01:00,
2013-02-26 10:16:00,32.3,24.0,29.84,NE,36,4.0,5.0,72,0.00,,,0.00,weatherlink.com 1.10,2013-02-26 15:16:00,
2013-02-26 10:31:00,32.4,24.0,29.84,SSE,152,2.0,5.0,72,0.00,,,0.00,weatherlink.com 1.10,2013-02-26 15:31:00,
2013-02-26 10:46:00,32.3,25.0,29.82,SE,135,2.0,9.0,73,0.00,,,0.00,weatherlink.com 1.10,2013-02-26 15:46:00,
2013-02-26 11:01:00,32.4,25.0,29.82,NNW,333,4.0,7.0,73,0.00,,,0.00,weatherlink.com 1.10,2013-02-26 16:01:00,
2013-02-26 11:16:00,32.8,25.0,29.79,SW,225,1.0,8.0,73,0.00,,,0.00,weatherlink.com 1.10,2013-02-26 16:16:00,
2013-02-26 11:31:00,33.2,25.0,29.79,SE,134,2.0,5.0,72,0.00,,,0.00,weatherlink.com 1.10,2013-02-26 16:31:00,
2013-02-26 11:46:00,33.4,25.0,29.78,ESE,120,3.0,6.0,72,0.00,,,0.00,weatherlink.com 1.10,2013-02-26 16:46:00,
2013-02-26 12:01:00,33.4,26.0,29.77,South,170,2.0,8.0,74,0.00,,,0.00,weatherlink.com 1.10,2013-02-26 17:01:00,
2013-02-26 12:16:00,33.2,26.0,29.76,East,91,2.0,9.0,74,0.00,,,0.00,weatherlink.com 1.10,2013-02-26 17:16:00,
2013-02-26 12:31:00,33.5,26.0,29.75,WNW,302,4.0,8.0,75,0.00,,,0.00,weatherlink.com 1.10,2013-02-26 17:31:00,
2013-02-26 12:46:00,33.5,27.0,29.75,South,188,2.0,13.0,76,0.00,,,0.00,weatherlink.com 1.10,2013-02-26 17:46:00,
2013-02-26 13:01:00,33.7,27.0,29.73,SE,137,0.0,7.0,76,0.00,,,0.00,weatherlink.com 1.10,2013-02-26 18:01:00,
2013-02-26 13:16:00,33.9,27.0,29.72,SSE,157,4.0,9.0,75,0.00,,,0.00,weatherlink.com 1.10,2013-02-26 18:16:00,
2013-02-26 13:31:00,34.3,27.0,29.70,SW,214,0.0,6.0,75,0.00,,,0.00,weatherlink.com 1.10,2013-02-26 18:31:00,
2013-02-26 13:46:00,34.5,27.0,29.68,NW,321,1.0,8.0,74,0.00,,,0.00,weatherlink.com 1.10,2013-02-26 18:46:00,
2013-02-26 14:01:00,34.6,27.0,29.66,NNW,338,1.0,9.0,75,0.00,,,0.00,weatherlink.com 1.10,2013-02-26 19:01:00,
2013-02-26 14:16:00,34.3,28.0,29.66,NNW,343,3.0,6.0,77,0.00,,,0.00,weatherlink.com 1.10,2013-02-26 19:16:00,
2013-02-26 14:31:00,33.9,28.0,29.64,NNW,340,2.0,7.0,79,0.00,,,0.00,weatherlink.com 1.10,2013-02-26 19:31:00,
2013-02-26 14:46:00,33.3,29.0,29.64,WNW,294,1.0,5.0,84,0.00,,,0.00,weatherlink.com 1.10,2013-02-26 19:46:00,
2013-02-26 15:01:00,33.1,29.0,29.64,West,281,1.0,6.0,86,0.00,,,0.00,weatherlink.com 1.10,2013-02-26 20:01:00,
2013-02-26 15:16:00,33.0,30.0,29.64,NNE,32,2.0,5.0,88,0.00,,,0.00,weatherlink.com 1.10,2013-02-26 20:16:00,
2013-02-26 15:31:00,33.0,30.0,29.64,WNW,302,1.0,5.0,89,0.00,,,0.00,weatherlink.com 1.10,2013-02-26 20:31:00,
2013-02-26 15:46:00,32.9,30.0,29.63,WSW,248,3.0,9.0,89,0.00,,,0.00,weatherlink.com 1.10,2013-02-26 20:46:00,
2013-02-26 16:01:00,33.0,30.0,29.63,East,91,1.0,5.0,90,0.00,,,0.00,weatherlink.com 1.10,2013-02-26 21:01:00,
2013-02-26 16:16:00,33.1,31.0,29.63,NW,312,3.0,5.0,90,0.00,,,0.00,weatherlink.com 1.10,2013-02-26 21:16:00,
2013-02-26 16:31:00,32.9,30.0,29.62,SSE,158,1.0,4.0,90,0.00,,,0.00,weatherlink.com 1.10,2013-02-26 21:31:00,
2013-02-26 16:46:00,33.0,31.0,29.63,SE,131,3.0,3.0,91,0.00,,,0.00,weatherlink.com 1.10,2013-02-26 21:46:00,
2013-02-26 17:01:00,32.9,31.0,29.63,NE,47,1.0,4.0,91,0.00,,,0.00,weatherlink.com 1.10,2013-02-26 22:01:00,
2013-02-26 17:16:00,32.7,31.0,29.63,NW,321,2.0,5.0,92,0.00,,,0.00,weatherlink.com 1.10,2013-02-26 22:16:00,
2013-02-26 17:32:00,32.5,31.0,29.62,NE,39,1.0,9.0,93,0.00,,,0.00,weatherlink.com 1.10,2013-02-26 22:32:00,
2013-02-26 17:47:00,32.3,31.0,29.62,SSW,201,1.0,6.0,94,0.00,,,0.00,weatherlink.com 1.10,2013-02-26 22:47:00,
2013-02-26 18:02:00,32.2,31.0,29.61,North,5,0.0,4.0,94,0.00,,,0.00,weatherlink.com 1.10,2013-02-26 23:02:00,
2013-02-26 18:17:00,32.2,31.0,29.61,SSE,157,0.0,2.0,95,0.00,,,0.00,weatherlink.com 1.10,2013-02-26 23:17:00,
2013-02-26 18:32:00,32.3,31.0,29.61,ENE,73,1.0,4.0,95,0.00,,,0.00,weatherlink.com 1.10,2013-02-26 23:32:00,
2013-02-26 18:47:00,32.3,31.0,29.61,SSE,167,0.0,2.0,95,0.00,,,0.00,weatherlink.com 1.10,2013-02-26 23:47:00,
2013-02-26 19:17:00,32.5,31.0,29.61,East,93,0.0,2.0,95,0.00,,,0.00,weatherlink.com 1.10,2013-02-27 00:17:00,
2013-02-26 19:32:00,32.5,31.0,29.61,NE,50,0.0,1.0,95,0.00,,,0.00,weatherlink.com 1.10,2013-02-27 00:32:00,
2013-02-26 19:47:00,32.6,32.0,29.61,East,85,0.0,1.0,96,0.00,,,0.00,weatherlink.com 1.10,2013-02-27 00:47:00,
2013-02-26 20:02:00,32.6,32.0,29.61,South,184,0.0,1.0,96,0.00,,,0.00,weatherlink.com 1.10,2013-02-27 01:02:00,
2013-02-26 20:17:00,32.6,32.0,29.60,South,177,0.0,1.0,96,0.00,,,0.00,weatherlink.com 1.10,2013-02-27 01:17:00,
2013-02-26 20:32:00,32.5,32.0,29.59,North,354,0.0,1.0,96,0.00,,,0.00,weatherlink.com 1.10,2013-02-27 01:32:00,
2013-02-26 20:47:00,32.6,32.0,29.58,SE,139,0.0,1.0,96,0.00,,,0.00,weatherlink.com 1.10,2013-02-27 01:47:00,
2013-02-26 21:02:00,32.6,32.0,29.58,NNW,328,0.0,1.0,96,0.00,,,0.00,weatherlink.com 1.10,2013-02-27 02:02:00,
2013-02-26 21:17:00,32.7,32.0,29.57,South,190,0.0,1.0,96,0.00,,,0.00,weatherlink.com 1.10,2013-02-27 02:17:00,
2013-02-26 21:32:00,32.8,32.0,29.57,NNE,22,0.0,0.0,96,0.00,,,0.00,weatherlink.com 1.10,2013-02-27 02:32:00,
2013-02-26 21:47:00,32.8,32.0,29.56,WSW,257,0.0,0.0,96,0.00,,,0.00,weatherlink.com 1.10,2013-02-27 02:47:00,
2013-02-26 22:02:00,32.9,32.0,29.56,NW,309,0.0,0.0,96,0.00,,,0.00,weatherlink.com 1.10,2013-02-27 03:02:00,
2013-02-26 22:17:00,32.9,32.0,29.55,South,187,0.0,0.0,96,0.00,,,0.00,weatherlink.com 1.10,2013-02-27 03:17:00,
2013-02-26 22:32:00,32.9,32.0,29.55,West,262,0.0,0.0,96,0.00,,,0.00,weatherlink.com 1.10,2013-02-27 03:32:00,
2013-02-26 22:47:00,32.9,32.0,29.54,South,176,0.0,0.0,96,0.00,,,0.00,weatherlink.com 1.10,2013-02-27 03:47:00,
2013-02-26 23:02:00,32.9,32.0,29.54,South,176,0.0,0.0,96,0.00,,,0.00,weatherlink.com 1.10,2013-02-27 04:02:00,
2013-02-26 23:17:00,32.9,32.0,29.53,South,176,0.0,0.0,96,0.00,,,0.00,weatherlink.com 1.10,2013-02-27 04:17:00,
2013-02-26 23:32:00,32.9,32.0,29.53,South,176,0.0,0.0,96,0.00,,,0.00,weatherlink.com 1.10,2013-02-27 04:32:00,
2013-02-26 23:47:00,32.9,32.0,29.52,South,176,0.0,0.0,96,0.00,,,0.00,weatherlink.com 1.10,2013-02-27 04:47:00,